星链-1513 (STARLINK-1513 )

导读

STARLINK-1513是美国太空探索技术公司(SpaceX)发射的星链卫星,于2020年6月13日发射入轨,属于Starlink星座组网卫星中的一员。星链星座旨在构建全球卫星互联网,为全球多地提供高速宽带互联网服务,该卫星的发射推进了星链系统全球覆盖的进程。

Basic Information
目录编号:
45786
目录名称:
STARLINK-1513
国际标识:
2020-038BJ
轨道中心:
EARTH
卫星名称:
星链-1513
卫星全名:
星链-1513 (STARLINK-1513 )
卫星状态:
在轨 (已飞行2284 天)
发射日期:
2020-06-13 UTC
国别 :
美国 (US)
星等 :
--
This satellite is enrolled in the Space Conjunction Data Service (SCDS) and the current flight risk assessment level is: High Risk
Orbit Information
数据来源 国际轨道数据
星历时间: 2026-09-14T02:36:32+0800
7小时前
查看轨道信息
半长轴: 6838.159km
偏心率: 0.0000716
轨道倾角: 53.160°
近地点辐角 300.451°
升交点赤经 35.140°
平近点角 59.643°
近地点: 459.532km
远地点: 460.512km
周期: 93.793分钟
每日圈数: 15.353027
Detailed Information
固有亮度:
5
最大亮度:
2.5
卫星平台:
Starlink V1.0
覆盖范围:
全球
运营商:
太空探索技术公司
运营商所在国:
美国
制造商(研发单位):
太空探索技术公司
制造商所在国:
美国
使用方式:
暂无
Satellite Introduction
星链(Starlink)计划是由太空探索技术公司(SpaceX)提出的一个巨型低轨卫星互联网星座项目,计划在2019年至2024年间在太空搭建由约1.2万颗卫星组成的“星链”网络,其中1584颗将部署在地球上空550千米处的近地轨道,并从2020年开始工作。该卫星仍在工作。
2D Orbit Map
3D Orbit Map
Orbit Altitude Analysis Chart
Orbit Inclination Analysis Chart
Orbit Comprehensive Analysis Chart
View Comprehensive Chart
Conjunction Data List
Event ID Objects TCA Miss Dist (km) Collision Risk Probability Collision Risk Index (CRI) Action
CDM_260914-053504-578606-237323
2026-09-14T
05:35:23+0000
0.173 km
中距离
8.444884E-4 高风险 0.94
CDM_260914-031604-578605-186323
2026-09-14T
03:16:15+0000
0.437 km
远距离
2.436576E-4 高风险 0.83
CDM_260914-120504-578606-853622
2026-09-14T
12:05:09+0000
1.451 km
极远距离
4.495867E-6 低风险 0.48
CDM_260915-232004-578606-178721
2026-09-15T
23:20:29+0000
1.691 km
极远距离
4.00638E-6 低风险 0.47
CDM_260915-082204-578606-449122
2026-09-15T
08:22:55+0000
1.579 km
极远距离
3.663891E-6 低风险 0.46
CDM_260914-044904-578605-186322
2026-09-14T
04:49:59+0000
2.057 km
极远距离
2.343879E-6 低风险 0.42
CDM_260915-175704-578606-547321
2026-09-15T
17:57:31+0000
1.782 km
极远距离
2.342161E-6 低风险 0.42
CDM_260910-131304-578605-177122
2026-09-10T
13:13:27+0000
2.097 km
极远距离
2.251246E-6 低风险 0.42
CDM_260914-014204-578605-186322
2026-09-14T
01:42:31+0000
2.147 km
极远距离
2.11644E-6 低风险 0.42
CDM_260914-025104-578605-815621
2026-09-14T
02:51:01+0000
1.584 km
极远距离
2.089888E-6 低风险 0.41
Miss Distance Evolution Trend with All Objects Subscribe to Flight Safety Assessment
Collision Probability Evolution Trend with All Objects Subscribe to Flight Safety Assessment